SWA5611 KMDW-KLAX

Flight info

Callsign SWA5611
Flight time 3h 38m
Altitude 30000
Route PEKUE OBENE OGALE LNK J60 DVV/N0455F320 ZAKRY Q88 HAKMN ANJLL4
Aircraft B738/M-SDE2E3GHIJ4J7P2RWZ/LB1D1

Departure

Time 2026-05-05 23:40
Airport Chicago Midway International Airport (KMDW)

Arrival

Time 2026-05-06 03:19
Airport Los Angeles International Airport (KLAX)
Time Latitude Longitude Altitude Speed Heading
2026-05-05 23:17 41.78656 -87.74667 628 ft 0 kts 108°
2026-05-05 23:33 41.78657 -87.74673 628 ft 4 kts 109°
2026-05-05 23:33 41.78669 -87.74706 633 ft 4 kts 126°
2026-05-05 23:34 41.78687 -87.74731 629 ft 4 kts 148°
2026-05-05 23:34 41.78711 -87.74744 632 ft 4 kts 177°
2026-05-05 23:34 41.78735 -87.74738 628 ft 3 kts 220°
2026-05-05 23:34 41.78737 -87.74736 628 ft 0 kts 223°
2026-05-05 23:37 41.78732 -87.74742 632 ft 5 kts 223°
2026-05-05 23:37 41.78671 -87.74789 631 ft 15 kts 179°
2026-05-05 23:37 41.78536 -87.74782 632 ft 23 kts 179°
2026-05-05 23:37 41.78376 -87.74766 633 ft 23 kts 156°
2026-05-05 23:38 41.78261 -87.74627 628 ft 22 kts 134°
2026-05-05 23:38 41.78162 -87.74492 628 ft 17 kts 133°
2026-05-05 23:38 41.78082 -87.74378 628 ft 15 kts 134°
2026-05-05 23:38 41.78020 -87.74311 631 ft 7 kts 167°
2026-05-05 23:39 41.77976 -87.74327 627 ft 7 kts 212°
2026-05-05 23:39 41.77946 -87.74388 629 ft 8 kts 269°
2026-05-05 23:39 41.77960 -87.74422 634 ft 0 kts 313°
2026-05-05 23:39 41.78085 -87.74598 627 ft 64 kts 314°
2026-05-05 23:40 41.78568 -87.75277 627 ft 135 kts 314°
2026-05-05 23:40 41.79308 -87.76303 1029 ft 159 kts 315°
2026-05-05 23:40 41.80109 -87.77347 1882 ft 165 kts 314°
2026-05-05 23:40 41.80907 -87.78550 2452 ft 181 kts 302°
2026-05-05 23:41 41.81414 -87.80093 3241 ft 184 kts 284°
2026-05-05 23:41 41.81536 -87.81779 4101 ft 180 kts 272°
2026-05-05 23:41 41.81558 -87.83485 4792 ft 189 kts 272°
2026-05-05 23:41 41.81524 -87.85387 4980 ft 219 kts 270°
2026-05-05 23:42 41.81503 -87.87547 5242 ft 245 kts 270°
2026-05-05 23:42 41.81464 -87.89898 5811 ft 256 kts 271°
2026-05-05 23:42 41.81420 -87.92268 6619 ft 258 kts 270°
2026-05-05 23:42 41.81323 -87.94662 7499 ft 256 kts 268°
2026-05-05 23:43 41.81296 -87.97065 8438 ft 253 kts 269°
2026-05-05 23:43 41.81257 -87.99425 9320 ft 253 kts 266°
2026-05-05 23:43 41.81205 -88.01745 10142 ft 253 kts 266°
2026-05-05 23:43 41.81164 -88.04131 10765 ft 261 kts 267°
2026-05-05 23:44 41.81122 -88.06681 10950 ft 285 kts 267°
2026-05-05 23:44 41.81077 -88.09439 11135 ft 307 kts 267°
2026-05-05 23:44 41.81030 -88.12367 11581 ft 318 kts 268°
2026-05-05 23:44 41.80982 -88.15351 12270 ft 321 kts 268°
2026-05-05 23:45 41.80933 -88.18350 13069 ft 322 kts 268°
2026-05-05 23:45 41.80883 -88.21355 13791 ft 325 kts 268°
2026-05-05 23:45 41.80831 -88.24391 14418 ft 327 kts 268°
2026-05-05 23:45 41.80776 -88.27513 14657 ft 343 kts 268°
2026-05-05 23:46 41.80737 -88.29657 14828 ft 351 kts 268°
2026-05-05 23:46 41.80677 -88.32955 15346 ft 356 kts 268°
2026-05-05 23:46 41.80615 -88.36280 16017 ft 356 kts 268°
2026-05-05 23:46 41.80553 -88.39598 16660 ft 357 kts 267°
2026-05-05 23:47 41.80468 -88.44026 17437 ft 360 kts 267°
2026-05-05 23:47 41.80403 -88.47403 17999 ft 363 kts 267°
2026-05-05 23:47 41.80358 -88.49649 18368 ft 364 kts 267°
2026-05-05 23:47 41.80289 -88.53083 18913 ft 365 kts 267°
2026-05-05 23:48 41.80221 -88.56449 19415 ft 366 kts 266°
2026-05-05 23:48 41.80151 -88.59865 19907 ft 368 kts 266°
2026-05-05 23:48 41.80079 -88.63306 20400 ft 370 kts 266°
2026-05-05 23:48 41.80008 -88.66725 21154 ft 360 kts 266°
2026-05-05 23:49 41.79936 -88.70099 21483 ft 368 kts 266°
2026-05-05 23:49 41.79860 -88.73568 21693 ft 376 kts 266°
2026-05-05 23:49 41.79782 -88.77089 22115 ft 378 kts 266°
2026-05-05 23:49 41.79712 -88.80614 22621 ft 379 kts 267°
2026-05-05 23:50 41.79825 -88.84155 23070 ft 382 kts 271°
2026-05-05 23:50 41.80045 -88.87708 23443 ft 385 kts 271°
2026-05-05 23:50 41.80286 -88.91299 23746 ft 388 kts 271°
2026-05-05 23:50 41.80529 -88.94906 24154 ft 388 kts 271°
2026-05-05 23:51 41.80765 -88.98501 24572 ft 387 kts 271°
2026-05-05 23:51 41.80990 -89.02052 24970 ft 387 kts 271°
2026-05-05 23:51 41.81212 -89.05656 25330 ft 388 kts 271°
2026-05-05 23:51 41.81430 -89.09257 25682 ft 388 kts 271°
2026-05-05 23:52 41.81646 -89.12872 26029 ft 389 kts 271°
2026-05-05 23:52 41.81860 -89.16495 26382 ft 389 kts 271°
2026-05-05 23:52 41.82073 -89.20095 26866 ft 386 kts 271°
2026-05-05 23:52 41.82282 -89.23654 27468 ft 380 kts 271°
2026-05-05 23:53 41.82487 -89.27155 28148 ft 373 kts 271°
2026-05-05 23:53 41.82687 -89.30595 28767 ft 368 kts 271°
2026-05-05 23:53 41.82883 -89.34000 29259 ft 365 kts 271°
2026-05-05 23:53 41.83076 -89.37387 29725 ft 363 kts 271°
2026-05-05 23:54 41.83268 -89.40750 30201 ft 359 kts 271°
2026-05-05 23:54 41.83456 -89.44066 30683 ft 354 kts 271°
2026-05-05 23:54 41.83641 -89.47339 31158 ft 350 kts 271°
2026-05-05 23:54 41.83822 -89.50574 31595 ft 346 kts 271°
2026-05-05 23:55 41.84001 -89.53782 31995 ft 343 kts 271°
2026-05-05 23:55 41.84177 -89.56959 32414 ft 340 kts 271°
2026-05-05 23:55 41.84349 -89.60066 32836 ft 336 kts 271°
2026-05-05 23:55 41.84521 -89.63175 33255 ft 333 kts 271°
2026-05-05 23:56 41.84689 -89.66259 33642 ft 330 kts 271°
2026-05-05 23:56 41.84856 -89.69321 34009 ft 327 kts 271°
2026-05-05 23:56 41.84674 -89.75504 33512 ft 339 kts 263°
2026-05-05 23:57 41.84346 -89.78649 33025 ft 344 kts 262°
2026-05-05 23:57 41.84010 -89.81854 32544 ft 348 kts 262°
2026-05-05 23:57 41.83670 -89.85094 32065 ft 352 kts 262°
2026-05-05 23:57 41.83327 -89.88364 31593 ft 356 kts 262°
2026-05-05 23:58 41.82982 -89.91665 31130 ft 359 kts 262°
2026-05-05 23:58 41.82634 -89.94999 30674 ft 362 kts 261°
2026-05-05 23:58 41.82284 -89.98354 30222 ft 365 kts 261°
2026-05-05 23:58 41.81933 -90.01702 30001 ft 370 kts 261°
2026-05-05 23:59 41.81209 -90.08597 29899 ft 377 kts 261°
2026-05-05 23:59 41.80475 -90.15561 29887 ft 377 kts 261°
2026-05-06 00:00 41.79740 -90.22510 29878 ft 376 kts 261°
2026-05-06 00:00 41.79000 -90.29438 29887 ft 375 kts 261°
2026-05-06 00:01 41.78256 -90.36369 29890 ft 375 kts 261°
2026-05-06 00:01 41.77510 -90.43287 29898 ft 376 kts 261°
2026-05-06 00:02 41.76763 -90.50197 29879 ft 374 kts 260°
2026-05-06 00:02 41.76009 -90.57083 29897 ft 373 kts 260°
2026-05-06 00:03 41.75259 -90.63913 29895 ft 373 kts 260°
2026-05-06 00:03 41.74500 -90.70788 29893 ft 373 kts 260°
2026-05-06 00:04 41.73735 -90.77671 29914 ft 373 kts 260°
2026-05-06 00:04 41.72967 -90.84549 29892 ft 374 kts 260°
2026-05-06 00:05 41.71806 -90.94883 29892 ft 374 kts 260°
2026-05-06 00:06 41.71026 -91.01773 29892 ft 375 kts 260°
2026-05-06 00:06 41.70240 -91.08667 29898 ft 375 kts 260°
2026-05-06 00:07 41.69450 -91.15570 29908 ft 375 kts 260°
2026-05-06 00:07 41.68656 -91.22478 29902 ft 376 kts 259°
2026-05-06 00:08 41.67857 -91.29384 29906 ft 376 kts 259°
2026-05-06 00:08 41.67058 -91.36250 29907 ft 376 kts 259°
2026-05-06 00:09 41.66249 -91.43162 29901 ft 376 kts 259°
2026-05-06 00:09 41.65436 -91.50075 29913 ft 376 kts 259°
2026-05-06 00:10 41.64620 -91.56981 29916 ft 376 kts 259°
2026-05-06 00:10 41.63799 -91.63887 29911 ft 376 kts 259°
2026-05-06 00:11 41.62974 -91.70797 29908 ft 376 kts 259°
2026-05-06 00:11 41.62143 -91.77710 29903 ft 377 kts 259°
2026-05-06 00:12 41.61309 -91.84621 29900 ft 377 kts 259°
2026-05-06 00:12 41.60470 -91.91533 29904 ft 377 kts 259°
2026-05-06 00:13 41.59627 -91.98443 29892 ft 377 kts 259°
2026-05-06 00:13 41.58779 -92.05359 29894 ft 378 kts 259°
2026-05-06 00:14 41.57931 -92.12237 29892 ft 378 kts 259°
2026-05-06 00:14 41.57073 -92.19160 29901 ft 378 kts 259°
2026-05-06 00:15 41.56211 -92.26086 29901 ft 378 kts 258°
2026-05-06 00:15 41.55344 -92.33019 29909 ft 379 kts 258°
2026-05-06 00:16 41.54470 -92.39964 29904 ft 380 kts 258°
2026-05-06 00:16 41.53591 -92.46914 29888 ft 380 kts 258°
2026-05-06 00:17 41.52705 -92.53888 29908 ft 382 kts 258°
2026-05-06 00:17 41.51814 -92.60857 29926 ft 384 kts 258°
2026-05-06 00:18 41.50910 -92.67902 29921 ft 386 kts 258°
2026-05-06 00:18 41.49998 -92.74973 29922 ft 387 kts 258°
2026-05-06 00:19 41.49080 -92.82058 29914 ft 388 kts 258°
2026-05-06 00:19 41.48163 -92.89102 29924 ft 388 kts 258°
2026-05-06 00:20 41.47235 -92.96185 29927 ft 388 kts 258°
2026-05-06 00:20 41.46303 -93.03267 29923 ft 387 kts 258°
2026-05-06 00:21 41.45368 -93.10345 29932 ft 387 kts 258°
2026-05-06 00:21 41.44429 -93.17413 29922 ft 387 kts 258°
2026-05-06 00:22 41.43487 -93.24466 29925 ft 386 kts 258°
2026-05-06 00:22 41.42541 -93.31514 29924 ft 386 kts 258°
2026-05-06 00:23 41.41593 -93.38556 29925 ft 386 kts 258°
2026-05-06 00:23 41.40641 -93.45586 29928 ft 386 kts 258°
2026-05-06 00:24 41.39693 -93.52628 29932 ft 386 kts 258°
2026-05-06 00:24 41.38761 -93.59662 29934 ft 386 kts 258°
2026-05-06 00:25 41.37834 -93.66649 29939 ft 386 kts 258°
2026-05-06 00:25 41.36893 -93.73687 29933 ft 386 kts 258°
2026-05-06 00:26 41.35948 -93.80718 29940 ft 386 kts 258°
2026-05-06 00:26 41.34997 -93.87758 29941 ft 387 kts 258°
2026-05-06 00:27 41.34041 -93.94803 29938 ft 387 kts 258°
2026-05-06 00:27 41.33077 -94.01868 29943 ft 387 kts 258°
2026-05-06 00:28 41.32111 -94.08918 29939 ft 387 kts 258°
2026-05-06 00:28 41.31141 -94.15963 29946 ft 387 kts 258°
2026-05-06 00:29 41.30166 -94.23012 29962 ft 388 kts 258°
2026-05-06 00:29 41.29190 -94.30032 29954 ft 388 kts 258°
2026-05-06 00:30 41.28204 -94.37091 29951 ft 388 kts 257°
2026-05-06 00:30 41.27214 -94.44150 29954 ft 388 kts 257°
2026-05-06 00:31 41.26219 -94.51209 29956 ft 388 kts 257°
2026-05-06 00:31 41.25221 -94.58256 29972 ft 388 kts 258°
2026-05-06 00:32 41.24216 -94.65322 29965 ft 389 kts 257°
2026-05-06 00:32 41.23203 -94.72409 29961 ft 390 kts 257°
2026-05-06 00:33 41.22185 -94.79498 29966 ft 391 kts 257°
2026-05-06 00:33 41.21161 -94.86596 29960 ft 391 kts 257°
2026-05-06 00:34 41.20139 -94.93648 29962 ft 391 kts 257°
2026-05-06 00:34 41.19106 -95.00748 29973 ft 392 kts 257°
2026-05-06 00:35 41.18065 -95.07864 29968 ft 392 kts 257°
2026-05-06 00:35 41.17198 -95.13768 29970 ft 393 kts 257°
2026-05-06 00:36 41.16147 -95.20897 29968 ft 393 kts 257°
2026-05-06 00:36 41.15094 -95.28011 29970 ft 393 kts 257°
2026-05-06 00:37 41.14036 -95.35122 29982 ft 393 kts 257°
2026-05-06 00:37 41.12970 -95.42253 29973 ft 394 kts 257°
2026-05-06 00:38 41.11908 -95.49335 29974 ft 394 kts 257°
2026-05-06 00:38 41.10834 -95.56462 29969 ft 394 kts 257°
2026-05-06 00:39 41.09756 -95.63580 29973 ft 394 kts 257°
2026-05-06 00:39 41.08672 -95.70706 29992 ft 394 kts 257°
2026-05-06 00:40 41.07600 -95.77773 29975 ft 391 kts 257°
2026-05-06 00:40 41.06510 -95.84854 29975 ft 393 kts 257°
2026-05-06 00:41 41.05412 -95.91964 29976 ft 394 kts 257°
2026-05-06 00:41 41.04308 -95.99094 29972 ft 395 kts 257°
2026-05-06 00:42 41.03198 -96.06235 29982 ft 396 kts 257°
2026-05-06 00:42 41.02089 -96.13340 29985 ft 397 kts 257°
2026-05-06 00:43 41.00966 -96.20507 29989 ft 398 kts 257°
2026-05-06 00:43 40.99834 -96.27695 29982 ft 398 kts 257°
2026-05-06 00:44 40.98700 -96.34874 29987 ft 399 kts 257°
2026-05-06 00:44 40.97559 -96.42058 29981 ft 399 kts 257°
2026-05-06 00:45 40.96415 -96.49237 29977 ft 400 kts 257°
2026-05-06 00:45 40.95259 -96.56456 29993 ft 401 kts 257°
2026-05-06 00:46 40.94098 -96.63684 29970 ft 402 kts 257°
2026-05-06 00:46 40.92933 -96.70906 29978 ft 401 kts 257°
2026-05-06 00:47 40.91985 -96.78180 29995 ft 401 kts 261°
2026-05-06 00:47 40.91313 -96.85456 30003 ft 401 kts 261°
2026-05-06 00:48 40.90630 -96.92799 29991 ft 402 kts 261°
2026-05-06 00:48 40.89933 -97.00140 29991 ft 403 kts 261°
2026-05-06 00:49 40.89226 -97.07492 29995 ft 403 kts 261°
2026-05-06 00:49 40.88513 -97.14842 29990 ft 403 kts 261°
2026-05-06 00:50 40.87795 -97.22187 29990 ft 403 kts 261°
2026-05-06 00:50 40.87077 -97.29488 29999 ft 403 kts 261°
2026-05-06 00:51 40.86351 -97.36827 29995 ft 403 kts 261°
2026-05-06 00:51 40.85619 -97.44163 29996 ft 403 kts 261°
2026-05-06 00:52 40.84883 -97.51507 30000 ft 403 kts 261°
2026-05-06 00:52 40.84142 -97.58847 29994 ft 403 kts 261°
2026-05-06 00:53 40.83395 -97.66195 30000 ft 404 kts 261°
2026-05-06 00:53 40.82642 -97.73557 30000 ft 404 kts 261°
2026-05-06 00:54 40.81884 -97.80920 30000 ft 405 kts 261°
2026-05-06 00:54 40.81120 -97.88292 29999 ft 405 kts 261°
2026-05-06 00:55 40.80352 -97.95661 30001 ft 405 kts 261°
2026-05-06 00:55 40.79582 -98.02997 30006 ft 407 kts 261°
2026-05-06 00:56 40.78799 -98.10416 29999 ft 409 kts 261°
2026-05-06 00:56 40.78009 -98.17858 30001 ft 410 kts 261°
2026-05-06 00:57 40.77213 -98.25308 30001 ft 410 kts 261°
2026-05-06 00:57 40.76412 -98.32766 30001 ft 410 kts 261°
2026-05-06 00:58 40.75603 -98.40238 30001 ft 411 kts 261°
2026-05-06 00:58 40.74789 -98.47708 30008 ft 412 kts 261°
2026-05-06 00:59 40.73968 -98.55199 30007 ft 413 kts 261°
2026-05-06 00:59 40.73143 -98.62698 30009 ft 413 kts 261°
2026-05-06 01:00 40.72313 -98.70191 30007 ft 413 kts 261°
2026-05-06 01:00 40.71482 -98.77647 30009 ft 415 kts 261°
2026-05-06 01:01 40.70636 -98.85192 30026 ft 417 kts 261°
2026-05-06 01:01 40.69781 -98.92779 30020 ft 418 kts 261°
2026-05-06 01:02 40.68920 -99.00367 30018 ft 419 kts 261°
2026-05-06 01:02 40.68054 -99.07956 30018 ft 419 kts 261°
2026-05-06 01:03 40.67178 -99.15577 30023 ft 421 kts 261°
2026-05-06 01:03 40.66294 -99.23230 30022 ft 423 kts 261°
2026-05-06 01:04 40.65404 -99.30894 30022 ft 424 kts 261°
2026-05-06 01:04 40.64506 -99.38574 30027 ft 424 kts 261°
2026-05-06 01:05 40.63608 -99.46206 30027 ft 424 kts 261°
2026-05-06 01:05 40.62698 -99.53897 30028 ft 426 kts 261°
2026-05-06 01:06 40.61781 -99.61603 30030 ft 427 kts 261°
2026-05-06 01:06 40.60858 -99.69324 30029 ft 427 kts 261°
2026-05-06 01:07 40.59928 -99.77043 30027 ft 427 kts 261°
2026-05-06 01:07 40.58994 -99.84761 30025 ft 427 kts 261°
2026-05-06 01:08 40.58053 -99.92484 30031 ft 427 kts 260°
2026-05-06 01:08 40.57108 -100.00200 30034 ft 427 kts 260°
2026-05-06 01:09 40.56158 -100.07912 30036 ft 427 kts 260°
2026-05-06 01:09 40.55201 -100.15638 30033 ft 427 kts 260°
2026-05-06 01:10 40.54241 -100.23346 30033 ft 427 kts 260°
2026-05-06 01:10 40.53285 -100.30980 30034 ft 426 kts 260°
2026-05-06 01:11 40.52317 -100.38661 30043 ft 425 kts 260°
2026-05-06 01:11 40.51347 -100.46323 30045 ft 425 kts 260°
2026-05-06 01:12 40.50372 -100.53975 30046 ft 425 kts 260°
2026-05-06 01:12 40.49392 -100.61625 30046 ft 424 kts 260°
2026-05-06 01:13 40.48411 -100.69251 30041 ft 423 kts 260°
2026-05-06 01:13 40.47425 -100.76872 30042 ft 423 kts 260°
2026-05-06 01:14 40.45939 -100.88283 30041 ft 422 kts 260°
2026-05-06 01:14 40.44942 -100.95845 30045 ft 422 kts 259°
2026-05-06 01:15 40.43916 -101.03449 30039 ft 422 kts 259°
2026-05-06 01:15 40.42885 -101.11036 30042 ft 422 kts 259°
2026-05-06 01:16 40.41850 -101.18628 30043 ft 422 kts 259°
2026-05-06 01:16 40.40813 -101.26211 30042 ft 422 kts 259°
2026-05-06 01:17 40.39771 -101.33791 30032 ft 422 kts 259°
2026-05-06 01:17 40.38724 -101.41370 30047 ft 422 kts 259°
2026-05-06 01:18 40.37672 -101.48947 30044 ft 422 kts 259°
2026-05-06 01:18 40.36623 -101.56468 30041 ft 422 kts 259°
2026-05-06 01:19 40.35561 -101.64043 30048 ft 422 kts 259°
2026-05-06 01:19 40.34493 -101.71616 30037 ft 422 kts 259°
2026-05-06 01:20 40.33421 -101.79186 30043 ft 422 kts 259°
2026-05-06 01:20 40.32344 -101.86757 30040 ft 423 kts 259°
2026-05-06 01:21 40.31445 -101.93044 30039 ft 423 kts 259°
2026-05-06 01:21 40.30358 -102.00618 30033 ft 423 kts 259°
2026-05-06 01:22 40.29266 -102.08186 30026 ft 423 kts 259°
2026-05-06 01:22 40.28164 -102.15783 30035 ft 424 kts 259°
2026-05-06 01:23 40.27055 -102.23395 30032 ft 425 kts 259°
2026-05-06 01:23 40.25951 -102.30940 30033 ft 425 kts 259°
2026-05-06 01:24 40.24835 -102.38521 30038 ft 425 kts 259°
2026-05-06 01:24 40.23709 -102.46143 30024 ft 426 kts 259°
2026-05-06 01:25 40.22578 -102.53762 30024 ft 427 kts 259°
2026-05-06 01:25 40.21439 -102.61394 30019 ft 428 kts 259°
2026-05-06 01:26 40.20293 -102.69036 30041 ft 429 kts 259°
2026-05-06 01:26 40.19140 -102.76692 30040 ft 429 kts 259°
2026-05-06 01:27 40.17980 -102.84358 30033 ft 430 kts 259°
2026-05-06 01:27 40.16813 -102.92033 30030 ft 430 kts 259°
2026-05-06 01:28 40.15642 -102.99703 30035 ft 430 kts 259°
2026-05-06 01:28 40.14472 -103.07324 30038 ft 430 kts 259°
2026-05-06 01:29 40.13291 -103.14987 30014 ft 430 kts 259°
2026-05-06 01:29 40.12104 -103.22651 30017 ft 430 kts 259°
2026-05-06 01:30 40.10910 -103.30322 30023 ft 431 kts 258°
2026-05-06 01:30 40.09712 -103.37989 30014 ft 431 kts 258°
2026-05-06 01:31 40.08505 -103.45672 30017 ft 431 kts 258°
2026-05-06 01:31 40.07295 -103.53345 29995 ft 432 kts 258°
2026-05-06 01:32 40.06078 -103.61024 30005 ft 432 kts 258°
2026-05-06 01:32 40.04860 -103.68675 29998 ft 433 kts 258°
2026-05-06 01:33 40.03629 -103.76374 30004 ft 433 kts 258°
2026-05-06 01:33 40.02402 -103.84017 29996 ft 433 kts 258°
2026-05-06 01:34 40.01159 -103.91717 29988 ft 434 kts 258°
2026-05-06 01:34 39.99911 -103.99422 29990 ft 436 kts 258°
2026-05-06 01:35 39.98650 -104.07168 29987 ft 436 kts 258°
2026-05-06 01:35 39.97383 -104.14916 29982 ft 437 kts 258°
2026-05-06 01:36 39.96112 -104.22656 29990 ft 437 kts 258°
2026-05-06 01:36 39.94834 -104.30406 29993 ft 437 kts 258°
2026-05-06 01:37 39.93551 -104.38151 30001 ft 437 kts 258°
2026-05-06 01:37 39.92264 -104.45889 30003 ft 437 kts 258°
2026-05-06 01:38 39.90974 -104.53613 30014 ft 436 kts 258°
2026-05-06 01:38 39.89679 -104.61337 30017 ft 436 kts 258°
2026-05-06 01:39 39.88302 -104.69029 30019 ft 436 kts 257°
2026-05-06 01:39 39.86848 -104.76641 30017 ft 436 kts 257°
2026-05-06 01:40 39.85380 -104.84310 30016 ft 436 kts 257°
2026-05-06 01:40 39.83920 -104.91969 30003 ft 436 kts 257°
2026-05-06 01:41 39.82462 -104.99628 29992 ft 436 kts 257°
2026-05-06 01:41 39.80999 -105.07285 30028 ft 436 kts 257°
2026-05-06 01:42 39.79551 -105.14837 30024 ft 436 kts 257°
2026-05-06 01:42 39.78079 -105.22481 30023 ft 436 kts 257°
2026-05-06 01:43 39.76601 -105.30129 30001 ft 436 kts 257°
2026-05-06 01:43 39.75119 -105.37771 29986 ft 437 kts 257°
2026-05-06 01:44 39.73626 -105.45439 29971 ft 438 kts 257°
2026-05-06 01:44 39.72128 -105.53097 29915 ft 438 kts 257°
2026-05-06 01:45 39.70631 -105.60728 29911 ft 438 kts 256°
2026-05-06 01:45 39.69118 -105.68409 29850 ft 439 kts 256°
2026-05-06 01:46 39.67595 -105.76113 29868 ft 441 kts 256°
2026-05-06 01:46 39.66062 -105.83837 29812 ft 442 kts 256°
2026-05-06 01:47 39.64519 -105.91580 29813 ft 443 kts 256°
2026-05-06 01:47 39.62980 -105.99274 29784 ft 443 kts 256°
2026-05-06 01:48 39.61477 -106.07109 29771 ft 446 kts 256°
2026-05-06 01:48 39.59877 -106.14864 29759 ft 449 kts 256°
2026-05-06 01:49 39.58255 -106.22741 29765 ft 450 kts 256°
2026-05-06 01:49 39.56663 -106.30552 29751 ft 451 kts 256°
2026-05-06 01:50 39.55057 -106.38411 29752 ft 452 kts 256°
2026-05-06 01:50 39.53488 -106.46319 29750 ft 454 kts 257°
2026-05-06 01:51 39.51851 -106.54238 29760 ft 455 kts 256°
2026-05-06 01:51 39.50195 -106.62147 29770 ft 455 kts 256°
2026-05-06 01:52 39.48548 -106.70078 29735 ft 456 kts 256°
2026-05-06 01:52 39.46921 -106.78019 29755 ft 457 kts 257°
2026-05-06 01:53 39.45272 -106.85920 29740 ft 458 kts 256°
2026-05-06 01:53 39.43592 -106.93877 29813 ft 458 kts 256°
2026-05-06 01:54 39.41918 -107.01840 29790 ft 459 kts 256°
2026-05-06 01:54 39.40265 -107.09805 29765 ft 460 kts 257°
2026-05-06 01:55 39.38551 -107.17805 29744 ft 463 kts 256°
2026-05-06 01:55 39.36199 -107.25573 29743 ft 467 kts 246°
2026-05-06 01:56 39.33318 -107.33117 29727 ft 468 kts 246°
2026-05-06 01:56 39.30441 -107.40676 29712 ft 469 kts 246°
2026-05-06 01:57 39.27548 -107.48259 29735 ft 472 kts 246°
2026-05-06 01:57 39.24696 -107.55865 29746 ft 475 kts 247°
2026-05-06 01:58 39.21826 -107.63556 29756 ft 476 kts 247°
2026-05-06 01:58 39.18932 -107.71250 29742 ft 477 kts 247°
2026-05-06 01:59 39.16001 -107.78937 29723 ft 480 kts 248°
2026-05-06 01:59 39.13100 -107.86720 29732 ft 483 kts 247°
2026-05-06 02:00 39.10134 -107.94506 29734 ft 485 kts 247°
2026-05-06 02:00 39.07135 -108.02308 29721 ft 487 kts 247°
2026-05-06 02:01 39.04136 -108.10126 29714 ft 487 kts 246°
2026-05-06 02:01 39.01150 -108.17924 29726 ft 485 kts 249°
2026-05-06 02:02 38.98148 -108.25697 29741 ft 485 kts 245°
2026-05-06 02:02 38.95159 -108.33460 29752 ft 484 kts 245°
2026-05-06 02:03 38.92207 -108.41172 29747 ft 485 kts 246°
2026-05-06 02:03 38.89230 -108.48956 29746 ft 487 kts 247°
2026-05-06 02:04 38.86108 -108.56731 29740 ft 491 kts 245°
2026-05-06 02:04 38.83062 -108.64581 29720 ft 492 kts 247°
2026-05-06 02:05 38.80070 -108.72481 29697 ft 493 kts 247°
2026-05-06 02:05 38.77050 -108.80358 29697 ft 492 kts 246°
2026-05-06 02:06 38.74000 -108.88231 29693 ft 494 kts 246°
2026-05-06 02:06 38.70932 -108.96106 29706 ft 494 kts 246°
2026-05-06 02:07 38.67858 -109.03976 29703 ft 493 kts 246°
2026-05-06 02:07 38.64780 -109.11823 29702 ft 494 kts 246°
2026-05-06 02:08 38.61781 -109.19703 29708 ft 497 kts 245°
2026-05-06 02:08 38.59141 -109.26317 29702 ft 499 kts 245°
2026-05-06 02:09 38.56007 -109.34171 29707 ft 500 kts 245°
2026-05-06 02:09 38.52866 -109.42096 29703 ft 500 kts 246°
2026-05-06 02:10 38.49727 -109.50015 29698 ft 501 kts 246°
2026-05-06 02:10 38.46575 -109.57981 29705 ft 503 kts 245°
2026-05-06 02:11 38.43404 -109.65941 29702 ft 505 kts 245°
2026-05-06 02:11 38.40217 -109.73919 29696 ft 505 kts 245°
2026-05-06 02:12 38.37046 -109.81841 29683 ft 505 kts 245°
2026-05-06 02:12 38.33840 -109.89833 29688 ft 507 kts 245°
2026-05-06 02:13 38.30625 -109.97830 29712 ft 508 kts 245°
2026-05-06 02:13 38.27388 -110.05845 29711 ft 509 kts 245°
2026-05-06 02:14 38.24090 -110.13814 29700 ft 509 kts 244°
2026-05-06 02:14 38.20764 -110.21774 29706 ft 510 kts 244°
2026-05-06 02:15 38.17432 -110.29749 29699 ft 511 kts 244°
2026-05-06 02:15 38.14100 -110.37725 29697 ft 511 kts 244°
2026-05-06 02:16 38.10760 -110.45704 29685 ft 512 kts 244°
2026-05-06 02:17 38.03715 -110.62468 29695 ft 514 kts 244°
2026-05-06 02:17 38.00334 -110.70481 29689 ft 515 kts 244°
2026-05-06 02:18 37.96946 -110.78490 29707 ft 516 kts 244°
2026-05-06 02:18 37.93544 -110.86511 29693 ft 517 kts 244°
2026-05-06 02:19 37.90130 -110.94539 29712 ft 517 kts 244°
2026-05-06 02:19 37.86713 -111.02555 29719 ft 518 kts 243°
2026-05-06 02:20 37.81589 -111.14540 29716 ft 518 kts 243°
2026-05-06 02:21 37.78149 -111.22560 29716 ft 519 kts 243°
2026-05-06 02:21 37.74697 -111.30589 29742 ft 521 kts 243°
2026-05-06 02:22 37.71226 -111.38640 29732 ft 522 kts 243°
2026-05-06 02:22 37.67747 -111.46692 29749 ft 522 kts 243°
2026-05-06 02:23 37.64261 -111.54738 29758 ft 522 kts 243°
2026-05-06 02:23 37.60764 -111.62791 29752 ft 523 kts 243°
2026-05-06 02:24 37.57270 -111.70816 29760 ft 523 kts 243°
2026-05-06 02:24 37.53763 -111.78855 29779 ft 522 kts 243°
2026-05-06 02:25 37.50242 -111.86869 29808 ft 524 kts 241°
2026-05-06 02:25 37.46076 -111.94337 29823 ft 526 kts 233°
2026-05-06 02:26 37.41621 -112.01641 29811 ft 526 kts 234°
2026-05-06 02:26 37.37267 -112.09037 29818 ft 525 kts 234°
2026-05-06 02:27 37.32945 -112.16441 29798 ft 526 kts 234°
2026-05-06 02:27 37.28603 -112.23863 29822 ft 527 kts 234°
2026-05-06 02:28 37.24981 -112.30034 29816 ft 529 kts 234°
2026-05-06 02:28 37.20612 -112.37461 29825 ft 529 kts 234°
2026-05-06 02:29 37.16229 -112.44894 29832 ft 529 kts 234°
2026-05-06 02:29 37.11842 -112.52320 29838 ft 531 kts 234°
2026-05-06 02:30 37.07441 -112.59757 29844 ft 531 kts 234°
2026-05-06 02:30 37.03035 -112.67177 29875 ft 531 kts 234°
2026-05-06 02:31 36.98616 -112.74593 29901 ft 531 kts 234°
2026-05-06 02:31 36.94187 -112.82013 29922 ft 532 kts 234°
2026-05-06 02:32 36.89754 -112.89428 29955 ft 533 kts 234°
2026-05-06 02:32 36.85310 -112.96844 29952 ft 533 kts 233°
2026-05-06 02:33 36.80886 -113.04210 29950 ft 533 kts 233°
2026-05-06 02:33 36.79382 -113.06712 29940 ft 533 kts 233°
2026-05-06 02:34 36.71984 -113.18988 29886 ft 532 kts 233°
2026-05-06 02:34 36.67517 -113.26379 29858 ft 533 kts 233°
2026-05-06 02:35 36.63059 -113.33741 29856 ft 533 kts 233°
2026-05-06 02:35 36.58724 -113.41142 29852 ft 533 kts 235°
2026-05-06 02:36 36.54462 -113.48722 29849 ft 534 kts 236°
2026-05-06 02:36 36.50196 -113.56287 29853 ft 535 kts 235°
2026-05-06 02:37 36.45895 -113.63835 29861 ft 535 kts 235°
2026-05-06 02:37 36.41557 -113.71404 29835 ft 537 kts 235°
2026-05-06 02:38 36.37218 -113.78961 29822 ft 538 kts 235°
2026-05-06 02:38 36.32868 -113.86523 29826 ft 539 kts 235°
2026-05-06 02:39 36.28538 -113.94038 29806 ft 539 kts 235°
2026-05-06 02:39 36.24171 -114.01597 29795 ft 540 kts 235°
2026-05-06 02:40 36.19797 -114.09154 29784 ft 540 kts 234°
2026-05-06 02:40 36.15412 -114.16721 29781 ft 541 kts 234°
2026-05-06 02:41 36.11014 -114.24281 29788 ft 541 kts 234°
2026-05-06 02:41 36.06478 -114.31696 29784 ft 541 kts 229°
2026-05-06 02:42 36.01450 -114.38631 29793 ft 542 kts 226°
2026-05-06 02:42 35.96348 -114.45488 29788 ft 543 kts 227°
2026-05-06 02:43 35.91291 -114.52408 29810 ft 543 kts 227°
2026-05-06 02:43 35.86290 -114.59316 29817 ft 543 kts 227°
2026-05-06 02:44 35.81262 -114.66252 29854 ft 543 kts 227°
2026-05-06 02:44 35.76190 -114.73224 29850 ft 542 kts 227°
2026-05-06 02:45 35.71178 -114.80095 29889 ft 543 kts 227°
2026-05-06 02:45 35.66122 -114.87015 29879 ft 543 kts 227°
2026-05-06 02:46 35.61078 -114.93928 29894 ft 543 kts 227°
2026-05-06 02:46 35.56034 -115.00841 29886 ft 543 kts 227°
2026-05-06 02:47 35.50983 -115.07748 29901 ft 543 kts 227°
2026-05-06 02:47 35.45854 -115.14555 29926 ft 543 kts 226°
2026-05-06 02:48 35.40654 -115.21275 29925 ft 543 kts 225°
2026-05-06 02:48 35.35467 -115.27989 29931 ft 542 kts 226°
2026-05-06 02:49 35.30292 -115.34712 29914 ft 542 kts 226°
2026-05-06 02:49 35.25110 -115.41437 29940 ft 543 kts 225°
2026-05-06 02:50 35.19919 -115.48159 29928 ft 543 kts 225°
2026-05-06 02:50 35.14725 -115.54871 29934 ft 543 kts 225°
2026-05-06 02:51 35.09523 -115.61554 29931 ft 541 kts 226°
2026-05-06 02:51 35.04352 -115.68199 29915 ft 540 kts 225°
2026-05-06 02:52 34.99150 -115.74810 29920 ft 540 kts 225°
2026-05-06 02:52 34.93947 -115.81425 29914 ft 541 kts 225°
2026-05-06 02:53 34.88731 -115.88058 29909 ft 542 kts 225°
2026-05-06 02:53 34.83516 -115.94678 29894 ft 542 kts 225°
2026-05-06 02:54 34.78295 -116.01195 29918 ft 534 kts 224°
2026-05-06 02:54 34.73287 -116.07763 29890 ft 527 kts 226°
2026-05-06 02:55 34.68200 -116.14190 29898 ft 528 kts 225°
2026-05-06 02:55 34.63102 -116.20619 29905 ft 528 kts 225°
2026-05-06 02:56 34.58013 -116.27065 29885 ft 529 kts 225°
2026-05-06 02:56 34.55458 -116.30303 29404 ft 531 kts 226°
2026-05-06 02:56 34.52921 -116.33517 28878 ft 526 kts 226°
2026-05-06 02:56 34.50396 -116.36710 28362 ft 522 kts 226°
2026-05-06 02:57 34.47885 -116.39884 27826 ft 522 kts 226°
2026-05-06 02:57 34.45375 -116.43051 27299 ft 518 kts 226°
2026-05-06 02:57 34.42910 -116.46133 26752 ft 514 kts 226°
2026-05-06 02:57 34.40701 -116.49555 26201 ft 509 kts 242°
2026-05-06 02:58 34.39187 -116.53395 25733 ft 499 kts 246°
2026-05-06 02:58 34.37746 -116.57170 25169 ft 490 kts 246°
2026-05-06 02:58 34.36301 -116.60804 24653 ft 481 kts 245°
2026-05-06 02:58 34.34807 -116.64442 24152 ft 473 kts 244°
2026-05-06 02:59 34.33350 -116.67951 23898 ft 459 kts 244°
2026-05-06 02:59 34.31959 -116.71343 23366 ft 451 kts 245°
2026-05-06 02:59 34.30610 -116.74696 22804 ft 437 kts 245°
2026-05-06 02:59 34.29307 -116.77951 22347 ft 423 kts 245°
2026-05-06 03:00 34.28040 -116.81117 21872 ft 414 kts 245°
2026-05-06 03:00 34.26781 -116.84253 21442 ft 415 kts 245°
2026-05-06 03:00 34.25533 -116.87354 20977 ft 405 kts 245°
2026-05-06 03:00 34.24309 -116.90389 20532 ft 396 kts 245°
2026-05-06 03:01 34.23115 -116.93343 20107 ft 387 kts 245°
2026-05-06 03:01 34.21946 -116.96232 19689 ft 379 kts 245°
2026-05-06 03:01 34.20817 -116.99099 19283 ft 378 kts 249°
2026-05-06 03:01 34.19940 -117.02103 18901 ft 379 kts 255°
2026-05-06 03:02 34.19187 -117.05151 18473 ft 378 kts 255°
2026-05-06 03:02 34.18418 -117.08177 18042 ft 376 kts 254°
2026-05-06 03:02 34.17633 -117.11179 17576 ft 374 kts 255°
2026-05-06 03:02 34.16835 -117.14164 17158 ft 371 kts 255°
2026-05-06 03:03 34.16060 -117.17118 16722 ft 368 kts 253°
2026-05-06 03:03 34.15246 -117.20027 16346 ft 362 kts 252°
2026-05-06 03:03 34.14452 -117.22832 15949 ft 353 kts 253°
2026-05-06 03:03 34.13689 -117.25618 15560 ft 346 kts 253°
2026-05-06 03:04 34.12929 -117.28348 15176 ft 341 kts 253°
2026-05-06 03:04 34.12177 -117.31057 14814 ft 339 kts 253°
2026-05-06 03:04 34.11431 -117.33754 14444 ft 340 kts 253°
2026-05-06 03:04 34.10679 -117.36476 14082 ft 342 kts 253°
2026-05-06 03:05 34.09957 -117.39217 13721 ft 343 kts 255°
2026-05-06 03:05 34.09273 -117.41976 13355 ft 343 kts 255°
2026-05-06 03:05 34.08598 -117.44719 13006 ft 339 kts 255°
2026-05-06 03:05 34.07923 -117.47429 12674 ft 335 kts 255°
2026-05-06 03:06 34.07264 -117.50059 12359 ft 331 kts 255°
2026-05-06 03:06 34.06595 -117.52697 12037 ft 328 kts 255°
2026-05-06 03:06 34.05926 -117.55311 11723 ft 322 kts 255°
2026-05-06 03:06 34.05272 -117.57861 11412 ft 314 kts 255°
2026-05-06 03:07 34.04636 -117.60347 11112 ft 307 kts 255°
2026-05-06 03:07 34.04013 -117.62780 10828 ft 299 kts 255°
2026-05-06 03:07 34.03407 -117.65145 10546 ft 291 kts 255°
2026-05-06 03:07 34.02818 -117.67451 10278 ft 286 kts 255°
2026-05-06 03:08 34.02235 -117.69748 10013 ft 288 kts 256°
2026-05-06 03:08 34.01894 -117.72143 9644 ft 290 kts 266°
2026-05-06 03:08 34.01698 -117.74567 9316 ft 291 kts 266°
2026-05-06 03:08 34.01485 -117.76990 8967 ft 291 kts 265°
2026-05-06 03:09 34.01267 -117.79400 8605 ft 287 kts 265°
2026-05-06 03:09 34.01042 -117.81760 8294 ft 279 kts 264°
2026-05-06 03:09 34.00830 -117.84049 7949 ft 273 kts 265°
2026-05-06 03:09 34.00605 -117.86287 7670 ft 265 kts 264°
2026-05-06 03:10 34.00381 -117.88469 7365 ft 260 kts 265°
2026-05-06 03:10 34.00156 -117.90610 7059 ft 255 kts 265°
2026-05-06 03:10 33.99960 -117.92723 6830 ft 251 kts 265°
2026-05-06 03:10 33.99832 -117.94094 6645 ft 246 kts 265°
2026-05-06 03:11 33.99568 -117.96795 6271 ft 240 kts 265°
2026-05-06 03:11 33.99438 -117.98112 6078 ft 239 kts 265°
2026-05-06 03:11 33.99252 -118.00105 5777 ft 239 kts 265°
2026-05-06 03:11 33.99060 -118.02101 5475 ft 241 kts 264°
2026-05-06 03:12 33.98801 -118.04738 5066 ft 236 kts 264°
2026-05-06 03:12 33.98670 -118.06053 4856 ft 233 kts 263°
2026-05-06 03:12 33.98477 -118.07978 4551 ft 228 kts 264°
2026-05-06 03:12 33.98321 -118.09850 4267 ft 221 kts 264°
2026-05-06 03:13 33.98155 -118.11660 3995 ft 214 kts 264°
2026-05-06 03:13 33.97968 -118.13413 3781 ft 208 kts 263°
2026-05-06 03:13 33.97792 -118.15100 3579 ft 198 kts 263°
2026-05-06 03:13 33.97639 -118.16695 3419 ft 187 kts 264°
2026-05-06 03:14 33.97484 -118.18213 3227 ft 178 kts 262°
2026-05-06 03:14 33.97337 -118.19655 3055 ft 169 kts 263°
2026-05-06 03:14 33.97194 -118.21002 2901 ft 159 kts 260°
2026-05-06 03:14 33.97071 -118.22298 2748 ft 148 kts 265°
2026-05-06 03:15 33.96936 -118.23522 2669 ft 164 kts 264°
2026-05-06 03:15 33.96801 -118.25010 2596 ft 188 kts 267°
2026-05-06 03:15 33.96660 -118.26513 2411 ft 172 kts 258°
2026-05-06 03:15 33.96454 -118.27871 2175 ft 156 kts 262°
2026-05-06 03:16 33.96329 -118.29084 2012 ft 137 kts 263°
2026-05-06 03:16 33.96223 -118.30264 1800 ft 142 kts 263°
2026-05-06 03:16 33.96106 -118.31432 1605 ft 140 kts 263°
2026-05-06 03:16 33.95996 -118.32613 1420 ft 143 kts 262°
2026-05-06 03:17 33.95862 -118.33815 1216 ft 145 kts 261°
2026-05-06 03:17 33.95765 -118.35025 1027 ft 144 kts 266°
2026-05-06 03:17 33.95655 -118.36231 837 ft 144 kts 259°
2026-05-06 03:17 33.95486 -118.37405 601 ft 141 kts 261°
2026-05-06 03:18 33.95383 -118.38573 401 ft 141 kts 262°
2026-05-06 03:18 33.95260 -118.39757 220 ft 143 kts 262°
2026-05-06 03:18 33.95135 -118.40918 123 ft 129 kts 262°
2026-05-06 03:18 33.95054 -118.41726 123 ft 65 kts 263°
2026-05-06 03:19 33.95006 -118.42176 123 ft 49 kts 263°
2026-05-06 03:19 33.94966 -118.42458 122 ft 21 kts 244°
2026-05-06 03:19 33.94921 -118.42573 125 ft 12 kts 243°
2026-05-06 03:19 33.94874 -118.42654 121 ft 12 kts 229°
2026-05-06 03:20 33.94743 -118.42760 125 ft 14 kts 207°
2026-05-06 03:20 33.94651 -118.42755 124 ft 16 kts 123°
2026-05-06 03:20 33.94647 -118.42590 123 ft 22 kts 83°
2026-05-06 03:21 33.94666 -118.42411 123 ft 21 kts 82°
2026-05-06 03:21 33.94684 -118.42237 124 ft 21 kts 84°
2026-05-06 03:21 33.94701 -118.42069 125 ft 20 kts 83°
2026-05-06 03:21 33.94717 -118.41905 122 ft 19 kts 83°
2026-05-06 03:22 33.94733 -118.41747 122 ft 19 kts 83°
2026-05-06 03:22 33.94749 -118.41594 123 ft 18 kts 83°
2026-05-06 03:22 33.94768 -118.41447 123 ft 17 kts 74°
2026-05-06 03:22 33.94792 -118.41306 123 ft 17 kts 84°
2026-05-06 03:23 33.94807 -118.41162 122 ft 20 kts 82°
2026-05-06 03:23 33.94829 -118.40958 121 ft 27 kts 83°
2026-05-06 03:23 33.94849 -118.40742 123 ft 25 kts 82°
2026-05-06 03:23 33.94871 -118.40540 125 ft 23 kts 83°
2026-05-06 03:24 33.94891 -118.40351 122 ft 22 kts 83°
2026-05-06 03:24 33.94909 -118.40186 125 ft 13 kts 82°
2026-05-06 03:24 33.94902 -118.40097 121 ft 7 kts 135°
2026-05-06 03:24 33.94864 -118.40061 121 ft 7 kts 122°
2026-05-06 03:25 33.94831 -118.40048 122 ft 4 kts 200°
2026-05-06 03:25 33.94809 -118.40067 122 ft 3 kts 223°
2026-05-06 03:25 33.94802 -118.40076 122 ft 1 kts 225°
2026-05-06 03:25 33.94801 -118.40077 122 ft 0 kts 225°